Location: Buisson
(44.2787°N, 4.9969°E)
Time: 08:00:36
(UTC+00:00)

Cosmos 1605 Rocket - Pass Details

Date: 18 April 2021
Orbit: 944 x 1006 km, 82.9° (Epoch: 06 May)

Event Time Altitude Azimuth Distance (km) Brightness Sun altitude
Rises 02:47:16 0° 354° (N) 3,623 7.5 -20.4°
Reaches altitude 10° 02:49:47 10° 358° (N) 2,676 6.8 -20.0°
Maximum altitude 02:55:51 63° 79° (E) 1,060 4.4 -19.2°
Drops below altitude 10° 03:01:55 10° 160° (SSE) 2,685 6.1 -18.3°
Sets 03:04:27 0° 164° (SSE) 3,635 6.8 -18.0°
